#datetime,building,power
2022-10-04T00:00:00,cen,6.00
2022-10-04T00:02:00,cen,7.20
2022-10-04T00:03:00,cen,3.60
2022-10-04T00:05:00,cen,8.40
2022-10-04T00:06:00,cen,3.60
2022-10-04T00:08:00,cen,7.20
2022-10-04T00:10:00,cen,7.20
2022-10-04T00:11:00,cen,3.60
2022-10-04T00:12:00,cen,3.60
2022-10-04T00:14:00,cen,8.40
2022-10-04T00:16:00,cen,7.20
2022-10-04T00:17:00,cen,3.60
2022-10-04T00:19:00,cen,9.60
2022-10-04T00:20:00,cen,6.00
2022-10-04T00:22:00,cen,9.60
2022-10-04T00:24:00,cen,8.40
2022-10-04T00:25:00,cen,3.60
2022-10-04T00:27:00,cen,7.20
2022-10-04T00:28:00,cen,3.60
2022-10-04T00:29:00,cen,4.80
2022-10-04T00:31:00,cen,7.20
2022-10-04T00:32:00,cen,4.80
2022-10-04T00:33:00,cen,4.80
2022-10-04T00:35:00,cen,8.40
2022-10-04T00:37:00,cen,8.40
2022-10-04T00:38:00,cen,4.80
2022-10-04T00:40:00,cen,8.40
2022-10-04T00:41:00,cen,3.60
2022-10-04T00:42:00,cen,6.00
2022-10-04T00:44:00,cen,8.40
2022-10-04T00:46:00,cen,7.20
2022-10-04T00:47:00,cen,3.60
2022-10-04T00:48:00,cen,3.60
2022-10-04T00:50:00,cen,8.40
2022-10-04T00:52:00,cen,8.40
2022-10-04T00:53:00,cen,4.80
2022-10-04T00:55:00,cen,8.40
2022-10-04T00:56:00,cen,4.80
2022-10-04T00:58:00,cen,7.20
2022-10-04T01:00:00,cen,10.80
2022-10-04T01:01:00,cen,6.00
2022-10-04T01:02:00,cen,3.60
2022-10-04T01:03:00,cen,4.80
2022-10-04T01:05:00,cen,7.20
2022-10-04T01:07:00,cen,8.40
2022-10-04T01:08:00,cen,3.60
2022-10-04T01:09:00,cen,3.60
2022-10-04T01:11:00,cen,8.40
2022-10-04T01:13:00,cen,7.20
2022-10-04T01:14:00,cen,4.80
2022-10-04T01:16:00,cen,7.20
2022-10-04T01:17:00,cen,3.60
2022-10-04T01:18:00,cen,6.00
2022-10-04T01:20:00,cen,9.60
2022-10-04T01:22:00,cen,8.40
2022-10-04T01:24:00,cen,7.20
2022-10-04T01:25:00,cen,3.60
2022-10-04T01:26:00,cen,2.40
2022-10-04T01:27:00,cen,4.80
2022-10-04T01:29:00,cen,6.00
2022-10-04T01:31:00,cen,7.20
2022-10-04T01:32:00,cen,2.40
2022-10-04T01:34:00,cen,7.20
2022-10-04T01:35:00,cen,3.60
2022-10-04T01:36:00,cen,3.60
2022-10-04T01:38:00,cen,9.60
2022-10-04T01:40:00,cen,8.40
2022-10-04T01:42:00,cen,8.40
2022-10-04T01:44:00,cen,7.20
2022-10-04T01:45:00,cen,3.60
2022-10-04T01:46:00,cen,3.60
2022-10-04T01:48:00,cen,8.40
2022-10-04T01:50:00,cen,7.20
2022-10-04T01:52:00,cen,8.40
2022-10-04T01:54:00,cen,8.40
2022-10-04T01:56:00,cen,7.20
2022-10-04T01:57:00,cen,4.80
2022-10-04T01:59:00,cen,10.80
2022-10-04T02:00:00,cen,3.60
2022-10-04T02:01:00,cen,3.60
2022-10-04T02:03:00,cen,8.40
2022-10-04T02:05:00,cen,7.20
2022-10-04T02:07:00,cen,7.20
2022-10-04T02:08:00,cen,4.80
2022-10-04T02:10:00,cen,7.20
2022-10-04T02:12:00,cen,7.20
2022-10-04T02:13:00,cen,3.60
2022-10-04T02:15:00,cen,7.20
2022-10-04T02:16:00,cen,2.40
2022-10-04T02:17:00,cen,6.00
2022-10-04T02:18:00,cen,3.60
2022-10-04T02:20:00,cen,8.40
2022-10-04T02:21:00,cen,4.80
2022-10-04T02:23:00,cen,7.20
2022-10-04T02:24:00,cen,4.80
2022-10-04T02:26:00,cen,7.20
2022-10-04T02:28:00,cen,8.40
2022-10-04T02:29:00,cen,2.40
2022-10-04T02:31:00,cen,8.40
2022-10-04T02:33:00,cen,8.40
2022-10-04T02:34:00,cen,3.60
2022-10-04T02:35:00,cen,3.60
2022-10-04T02:37:00,cen,8.40
2022-10-04T02:39:00,cen,7.20
2022-10-04T02:41:00,cen,8.40
2022-10-04T02:42:00,cen,4.80
2022-10-04T02:44:00,cen,8.40
2022-10-04T02:46:00,cen,6.00
2022-10-04T02:47:00,cen,2.40
2022-10-04T02:49:00,cen,7.20
2022-10-04T02:51:00,cen,7.20
2022-10-04T02:52:00,cen,4.80
2022-10-04T02:53:00,cen,4.80
2022-10-04T02:55:00,cen,7.20
2022-10-04T02:56:00,cen,3.60
2022-10-04T02:58:00,cen,8.40
2022-10-04T02:59:00,cen,3.60
2022-10-04T03:00:00,cen,4.80
2022-10-04T03:02:00,cen,8.40
2022-10-04T03:03:00,cen,4.80
2022-10-04T03:05:00,cen,8.40
2022-10-04T03:07:00,cen,9.60
2022-10-04T03:09:00,cen,8.40
2022-10-04T03:11:00,cen,9.60
2022-10-04T03:12:00,cen,4.80
2022-10-04T03:14:00,cen,8.40
2022-10-04T03:15:00,cen,4.80
2022-10-04T03:17:00,cen,8.40
2022-10-04T03:19:00,cen,9.60
2022-10-04T03:21:00,cen,9.60
2022-10-04T03:23:00,cen,8.40
2022-10-04T03:24:00,cen,3.60
2022-10-04T03:25:00,cen,4.80
2022-10-04T03:27:00,cen,8.40
2022-10-04T03:28:00,cen,3.60
2022-10-04T03:29:00,cen,3.60
2022-10-04T03:31:00,cen,10.80
2022-10-04T03:32:00,cen,2.40
2022-10-04T03:34:00,cen,7.20
2022-10-04T03:36:00,cen,7.20
2022-10-04T03:38:00,cen,7.20
2022-10-04T03:39:00,cen,4.80
2022-10-04T03:40:00,cen,3.60
2022-10-04T03:42:00,cen,7.20
2022-10-04T03:44:00,cen,7.20
2022-10-04T03:46:00,cen,15.60
2022-10-04T03:47:00,cen,12.00
2022-10-04T03:49:00,cen,26.40
2022-10-04T03:50:00,cen,10.80
2022-10-04T03:52:00,cen,7.20
2022-10-04T03:54:00,cen,7.20
2022-10-04T03:56:00,cen,6.00
2022-10-04T03:58:00,cen,8.40
2022-10-04T03:59:00,cen,3.60
2022-10-04T04:00:00,cen,4.80
2022-10-04T04:02:00,cen,6.00
2022-10-04T04:04:00,cen,9.60
2022-10-04T04:06:00,cen,8.40
2022-10-04T04:08:00,cen,12.00
2022-10-04T04:10:00,cen,9.60
2022-10-04T04:12:00,cen,9.60
2022-10-04T04:13:00,cen,4.80
2022-10-04T04:15:00,cen,9.60
2022-10-04T04:17:00,cen,8.40
2022-10-04T04:19:00,cen,12.00
2022-10-04T04:20:00,cen,4.80
2022-10-04T04:22:00,cen,10.80
2022-10-04T04:23:00,cen,4.80
2022-10-04T04:25:00,cen,12.00
2022-10-04T04:26:00,cen,4.80
2022-10-04T04:28:00,cen,10.80
2022-10-04T04:30:00,cen,10.80
2022-10-04T04:31:00,cen,3.60
2022-10-04T04:32:00,cen,6.00
2022-10-04T04:34:00,cen,12.00
2022-10-04T04:35:00,cen,3.60
2022-10-04T04:36:00,cen,6.00
2022-10-04T04:38:00,cen,14.40
2022-10-04T04:39:00,cen,4.80
2022-10-04T04:40:00,cen,6.00
2022-10-04T04:42:00,cen,10.80
2022-10-04T04:44:00,cen,14.40
2022-10-04T04:46:00,cen,10.80
2022-10-04T04:47:00,cen,6.00
2022-10-04T04:49:00,cen,12.00
2022-10-04T04:51:00,cen,8.40
2022-10-04T04:52:00,cen,4.80
2022-10-04T04:54:00,cen,8.40
2022-10-04T04:55:00,cen,4.80
2022-10-04T04:57:00,cen,10.80
2022-10-04T04:59:00,cen,10.80
2022-10-04T05:01:00,cen,10.80
2022-10-04T05:03:00,cen,9.60
2022-10-04T05:04:00,cen,4.80
2022-10-04T05:06:00,cen,8.40
2022-10-04T05:08:00,cen,9.60
2022-10-04T05:10:00,cen,9.60
2022-10-04T05:12:00,cen,8.40
2022-10-04T05:13:00,cen,2.40
2022-10-04T05:15:00,cen,8.40
2022-10-04T05:17:00,cen,9.60
2022-10-04T05:19:00,cen,10.80
2022-10-04T05:20:00,cen,6.00
2022-10-04T05:22:00,cen,8.40
2022-10-04T05:23:00,cen,3.60
2022-10-04T05:25:00,cen,7.20
2022-10-04T05:27:00,cen,8.40
2022-10-04T05:29:00,cen,10.80
2022-10-04T05:30:00,cen,4.80
2022-10-04T05:32:00,cen,8.40
2022-10-04T05:34:00,cen,9.60
2022-10-04T05:36:00,cen,9.60
2022-10-04T05:38:00,cen,9.60
2022-10-04T05:40:00,cen,12.00
2022-10-04T05:41:00,cen,4.80
2022-10-04T05:43:00,cen,9.60
2022-10-04T05:45:00,cen,9.60
2022-10-04T05:46:00,cen,4.80
2022-10-04T05:48:00,cen,9.60
2022-10-04T05:49:00,cen,3.60
2022-10-04T05:51:00,cen,9.60
2022-10-04T05:52:00,cen,3.60
2022-10-04T05:53:00,cen,4.80
2022-10-04T05:55:00,cen,8.40
2022-10-04T05:57:00,cen,8.40
2022-10-04T05:58:00,cen,3.60
2022-10-04T06:00:00,cen,12.00
2022-10-04T06:01:00,cen,4.80
2022-10-04T06:04:00,cen,8.40
2022-10-04T06:05:00,cen,9.60
2022-10-04T06:07:00,cen,8.40
2022-10-04T06:08:00,cen,4.80
2022-10-04T06:09:00,cen,4.80
2022-10-04T06:11:00,cen,9.60
2022-10-04T06:13:00,cen,9.60
2022-10-04T06:15:00,cen,9.60
2022-10-04T06:16:00,cen,4.80
2022-10-04T06:17:00,cen,4.80
2022-10-04T06:19:00,cen,9.60
2022-10-04T06:20:00,cen,6.00
2022-10-04T06:22:00,cen,9.60
2022-10-04T06:24:00,cen,9.60
2022-10-04T06:25:00,cen,4.80
2022-10-04T06:26:00,cen,3.60
2022-10-04T06:28:00,cen,8.40
2022-10-04T06:30:00,cen,9.60
2022-10-04T06:32:00,cen,8.40
2022-10-04T06:33:00,cen,3.60
2022-10-04T06:35:00,cen,9.60
2022-10-04T06:37:00,cen,10.80
2022-10-04T06:38:00,cen,4.80
2022-10-04T06:40:00,cen,10.80
2022-10-04T06:41:00,cen,6.00
2022-10-04T06:43:00,cen,10.80
2022-10-04T06:45:00,cen,13.20
2022-10-04T06:46:00,cen,4.80
2022-10-04T06:48:00,cen,10.80
2022-10-04T06:50:00,cen,10.80
2022-10-04T06:52:00,cen,10.80
2022-10-04T06:54:00,cen,10.80
2022-10-04T06:55:00,cen,4.80
2022-10-04T06:57:00,cen,9.60
2022-10-04T06:59:00,cen,10.80
2022-10-04T07:00:00,cen,6.00
2022-10-04T07:02:00,cen,12.00
2022-10-04T07:03:00,cen,4.80
2022-10-04T07:05:00,cen,14.40
2022-10-04T07:07:00,cen,15.60
2022-10-04T07:09:00,cen,16.80
2022-10-04T07:11:00,cen,32.40
2022-10-04T07:13:00,cen,31.20
2022-10-04T07:15:00,cen,16.80
2022-10-04T07:17:00,cen,14.40
2022-10-04T07:19:00,cen,14.40
2022-10-04T07:20:00,cen,8.40
2022-10-04T07:22:00,cen,18.00
2022-10-04T07:24:00,cen,15.60
2022-10-04T07:25:00,cen,7.20
2022-10-04T07:27:00,cen,15.60
2022-10-04T07:29:00,cen,14.40
2022-10-04T07:31:00,cen,13.20
2022-10-04T07:33:00,cen,13.20
2022-10-04T07:34:00,cen,7.20
2022-10-04T07:36:00,cen,13.20
2022-10-04T07:38:00,cen,14.40
2022-10-04T07:39:00,cen,7.20
2022-10-04T07:41:00,cen,15.60
2022-10-04T07:43:00,cen,14.40
2022-10-04T07:45:00,cen,14.40
2022-10-04T07:46:00,cen,6.00
2022-10-04T07:48:00,cen,14.40
2022-10-04T07:50:00,cen,15.60
2022-10-04T07:52:00,cen,14.40
2022-10-04T07:54:00,cen,14.40
2022-10-04T07:55:00,cen,8.40
2022-10-04T07:57:00,cen,14.40
2022-10-04T07:58:00,cen,8.40
2022-10-04T08:00:00,cen,18.00
2022-10-04T08:01:00,cen,8.40
2022-10-04T08:03:00,cen,16.80
2022-10-04T08:04:00,cen,7.20
2022-10-04T08:06:00,cen,15.60
2022-10-04T08:07:00,cen,9.60
2022-10-04T08:08:00,cen,8.40
2022-10-04T08:09:00,cen,9.60
2022-10-04T08:11:00,cen,15.60
2022-10-04T08:13:00,cen,18.00
2022-10-04T08:15:00,cen,16.80
2022-10-04T08:17:00,cen,16.80
2022-10-04T08:18:00,cen,7.20
2022-10-04T08:19:00,cen,10.80
2022-10-04T08:21:00,cen,25.20
2022-10-04T08:23:00,cen,21.60
2022-10-04T08:25:00,cen,21.60
2022-10-04T08:27:00,cen,19.20
2022-10-04T08:28:00,cen,9.60
2022-10-04T08:29:00,cen,9.60
2022-10-04T08:31:00,cen,20.40
2022-10-04T08:33:00,cen,22.80
2022-10-04T08:35:00,cen,22.80
2022-10-04T08:36:00,cen,15.60
2022-10-04T08:37:00,cen,10.80
2022-10-04T08:38:00,cen,12.00
2022-10-04T08:40:00,cen,25.20
2022-10-04T08:41:00,cen,9.60
2022-10-04T08:43:00,cen,21.60
2022-10-04T08:45:00,cen,21.60
2022-10-04T08:47:00,cen,22.80
2022-10-04T08:48:00,cen,12.00
2022-10-04T08:50:00,cen,22.80
2022-10-04T08:51:00,cen,12.00
2022-10-04T08:53:00,cen,24.00
2022-10-04T08:54:00,cen,10.80
2022-10-04T08:56:00,cen,21.60
2022-10-04T08:57:00,cen,12.00
2022-10-04T08:59:00,cen,21.60
2022-10-04T09:00:00,cen,12.00
2022-10-04T09:02:00,cen,24.00
2022-10-04T09:03:00,cen,10.80
2022-10-04T09:04:00,cen,12.00
2022-10-04T09:06:00,cen,26.40
2022-10-04T09:07:00,cen,10.80
2022-10-04T09:09:00,cen,22.80
2022-10-04T09:11:00,cen,22.80
2022-10-04T09:12:00,cen,10.80
2022-10-04T09:14:00,cen,28.80
2022-10-04T09:16:00,cen,42.00
2022-10-04T09:18:00,cen,39.60
2022-10-04T09:20:00,cen,25.20
2022-10-04T09:22:00,cen,24.00
2022-10-04T09:24:00,cen,24.00
2022-10-04T09:25:00,cen,12.00
2022-10-04T09:26:00,cen,15.60
2022-10-04T09:27:00,cen,12.00
2022-10-04T09:29:00,cen,26.40
2022-10-04T09:31:00,cen,26.40
2022-10-04T09:33:00,cen,26.40
2022-10-04T09:34:00,cen,12.00
2022-10-04T09:35:00,cen,14.40
2022-10-04T09:37:00,cen,25.20
2022-10-04T09:38:00,cen,12.00
2022-10-04T09:40:00,cen,26.40
2022-10-04T09:42:00,cen,26.40
2022-10-04T09:44:00,cen,25.20
2022-10-04T09:45:00,cen,14.40
2022-10-04T09:47:00,cen,25.20
2022-10-04T09:48:00,cen,12.00
2022-10-04T09:50:00,cen,24.00
2022-10-04T09:51:00,cen,12.00
2022-10-04T09:52:00,cen,12.00
2022-10-04T09:54:00,cen,22.80
2022-10-04T09:55:00,cen,12.00
2022-10-04T09:57:00,cen,24.00
2022-10-04T09:59:00,cen,24.00
2022-10-04T10:01:00,cen,27.60
2022-10-04T10:03:00,cen,26.40
2022-10-04T10:04:00,cen,14.40
2022-10-04T10:05:00,cen,13.20
2022-10-04T10:07:00,cen,28.80
2022-10-04T10:09:00,cen,32.40
2022-10-04T10:11:00,cen,30.00
2022-10-04T10:12:00,cen,12.00
2022-10-04T10:14:00,cen,24.00
2022-10-04T10:15:00,cen,12.00
2022-10-04T10:17:00,cen,25.20
2022-10-04T10:19:00,cen,24.00
2022-10-04T10:21:00,cen,26.40
2022-10-04T10:23:00,cen,25.20
2022-10-04T10:24:00,cen,13.20
2022-10-04T10:26:00,cen,27.60
2022-10-04T10:27:00,cen,12.00
2022-10-04T10:29:00,cen,25.20
2022-10-04T10:31:00,cen,27.60
2022-10-04T10:32:00,cen,13.20
2022-10-04T10:34:00,cen,26.40
2022-10-04T10:36:00,cen,26.40
2022-10-04T10:37:00,cen,14.40
2022-10-04T10:38:00,cen,14.40
2022-10-04T10:39:00,cen,13.20
2022-10-04T10:41:00,cen,26.40
2022-10-04T10:43:00,cen,25.20
2022-10-04T10:45:00,cen,27.60
2022-10-04T10:46:00,cen,14.40
2022-10-04T10:48:00,cen,24.00
2022-10-04T10:50:00,cen,25.20
2022-10-04T10:51:00,cen,13.20
2022-10-04T10:52:00,cen,13.20
2022-10-04T10:54:00,cen,22.80
2022-10-04T10:56:00,cen,24.00
2022-10-04T10:57:00,cen,10.80
2022-10-04T10:59:00,cen,24.00
2022-10-04T11:00:00,cen,13.20
2022-10-04T11:02:00,cen,22.80
2022-10-04T11:03:00,cen,10.80
2022-10-04T11:05:00,cen,22.80
2022-10-04T11:07:00,cen,22.80
2022-10-04T11:09:00,cen,24.00
2022-10-04T11:11:00,cen,21.60
2022-10-04T11:13:00,cen,19.20
2022-10-04T11:15:00,cen,19.20
2022-10-04T11:17:00,cen,18.00
2022-10-04T11:18:00,cen,9.60
2022-10-04T11:20:00,cen,20.40
2022-10-04T11:21:00,cen,12.00
2022-10-04T11:22:00,cen,12.00
2022-10-04T11:24:00,cen,25.20
2022-10-04T11:25:00,cen,12.00
2022-10-04T11:26:00,cen,10.80
2022-10-04T11:28:00,cen,19.20
2022-10-04T11:29:00,cen,10.80
2022-10-04T11:31:00,cen,24.00
2022-10-04T11:33:00,cen,36.00
2022-10-04T11:35:00,cen,37.20
2022-10-04T11:36:00,cen,37.20
2022-10-04T11:37:00,cen,14.40
2022-10-04T11:38:00,cen,21.60
2022-10-04T11:40:00,cen,21.60
2022-10-04T11:42:00,cen,20.40
2022-10-04T11:44:00,cen,25.20
2022-10-04T11:45:00,cen,12.00
2022-10-04T11:47:00,cen,30.00
2022-10-04T11:49:00,cen,28.80
2022-10-04T11:51:00,cen,26.40
2022-10-04T11:52:00,cen,13.20
2022-10-04T11:54:00,cen,21.60
2022-10-04T11:55:00,cen,10.80
2022-10-04T11:57:00,cen,25.20
2022-10-04T11:59:00,cen,22.80
2022-10-04T12:01:00,cen,20.40
2022-10-04T12:03:00,cen,19.20
2022-10-04T12:05:00,cen,20.40
2022-10-04T12:06:00,cen,10.80
2022-10-04T12:08:00,cen,21.60
2022-10-04T12:09:00,cen,10.80
2022-10-04T12:10:00,cen,9.60
2022-10-04T12:12:00,cen,22.80
2022-10-04T12:14:00,cen,22.80
2022-10-04T12:15:00,cen,10.80
2022-10-04T12:17:00,cen,24.00
2022-10-04T12:19:00,cen,24.00
2022-10-04T12:21:00,cen,24.00
2022-10-04T12:23:00,cen,24.00
2022-10-04T12:24:00,cen,10.80
2022-10-04T12:26:00,cen,24.00
2022-10-04T12:27:00,cen,12.00
2022-10-04T12:29:00,cen,24.00
2022-10-04T12:30:00,cen,10.80
2022-10-04T12:32:00,cen,21.60
2022-10-04T12:33:00,cen,12.00
2022-10-04T12:35:00,cen,22.80
2022-10-04T12:37:00,cen,24.00
2022-10-04T12:39:00,cen,21.60
2022-10-04T12:41:00,cen,21.60
2022-10-04T12:42:00,cen,9.60
2022-10-04T12:43:00,cen,10.80
2022-10-04T12:45:00,cen,24.00
2022-10-04T12:46:00,cen,10.80
2022-10-04T12:48:00,cen,21.60
2022-10-04T12:50:00,cen,19.20
2022-10-04T12:51:00,cen,10.80
2022-10-04T12:52:00,cen,9.60
2022-10-04T12:54:00,cen,19.20
2022-10-04T12:55:00,cen,14.40
2022-10-04T12:56:00,cen,12.00
2022-10-04T12:58:00,cen,19.20
2022-10-04T12:59:00,cen,10.80
2022-10-04T13:01:00,cen,22.80
2022-10-04T13:03:00,cen,22.80
2022-10-04T13:04:00,cen,9.60
2022-10-04T13:06:00,cen,21.60
2022-10-04T13:07:00,cen,9.60
2022-10-04T13:09:00,cen,25.20
2022-10-04T13:11:00,cen,20.40
2022-10-04T13:13:00,cen,19.20
2022-10-04T13:14:00,cen,9.60
2022-10-04T13:16:00,cen,18.00
2022-10-04T13:17:00,cen,15.60
2022-10-04T13:19:00,cen,37.20
2022-10-04T13:20:00,cen,18.00
2022-10-04T13:22:00,cen,30.00
2022-10-04T13:24:00,cen,19.20
2022-10-04T13:26:00,cen,18.00
2022-10-04T13:28:00,cen,18.00
2022-10-04T13:29:00,cen,10.80
2022-10-04T13:31:00,cen,19.20
2022-10-04T13:32:00,cen,8.40
2022-10-04T13:34:00,cen,20.40
2022-10-04T13:35:00,cen,9.60
2022-10-04T13:37:00,cen,24.00
2022-10-04T13:38:00,cen,10.80
2022-10-04T13:40:00,cen,25.20
2022-10-04T13:42:00,cen,21.60
2022-10-04T13:44:00,cen,20.40
2022-10-04T13:46:00,cen,20.40
2022-10-04T13:47:00,cen,9.60
2022-10-04T13:49:00,cen,19.20
2022-10-04T13:51:00,cen,19.20
2022-10-04T13:53:00,cen,19.20
2022-10-04T13:55:00,cen,19.20
2022-10-04T13:56:00,cen,9.60
2022-10-04T13:58:00,cen,19.20
2022-10-04T13:59:00,cen,9.60
2022-10-04T14:01:00,cen,21.60
2022-10-04T14:03:00,cen,19.20
2022-10-04T14:05:00,cen,20.40
2022-10-04T14:06:00,cen,10.80
2022-10-04T14:07:00,cen,12.00
2022-10-04T14:09:00,cen,26.40
2022-10-04T14:11:00,cen,22.80
2022-10-04T14:13:00,cen,21.60
2022-10-04T14:14:00,cen,10.80
2022-10-04T14:16:00,cen,20.40
2022-10-04T14:17:00,cen,10.80
2022-10-04T14:19:00,cen,21.60
2022-10-04T14:20:00,cen,10.80
2022-10-04T14:22:00,cen,24.00
2022-10-04T14:24:00,cen,18.00
2022-10-04T14:25:00,cen,8.40
2022-10-04T14:26:00,cen,8.40
2022-10-04T14:28:00,cen,18.00
2022-10-04T14:29:00,cen,9.60
2022-10-04T14:30:00,cen,8.40
2022-10-04T14:32:00,cen,19.20
2022-10-04T14:34:00,cen,18.00
2022-10-04T14:36:00,cen,16.80
2022-10-04T14:37:00,cen,8.40
2022-10-04T14:39:00,cen,18.00
2022-10-04T14:41:00,cen,19.20
2022-10-04T14:43:00,cen,20.40
2022-10-04T14:45:00,cen,20.40
2022-10-04T14:47:00,cen,18.00
2022-10-04T14:49:00,cen,20.40
2022-10-04T14:50:00,cen,13.20
2022-10-04T14:52:00,cen,21.60
2022-10-04T14:54:00,cen,20.40
2022-10-04T14:56:00,cen,20.40
2022-10-04T14:58:00,cen,20.40
2022-10-04T15:00:00,cen,21.60
2022-10-04T15:01:00,cen,12.00
2022-10-04T15:03:00,cen,25.20
2022-10-04T15:05:00,cen,21.60
2022-10-04T15:07:00,cen,21.60
2022-10-04T15:09:00,cen,21.60
2022-10-04T15:11:00,cen,20.40
2022-10-04T15:13:00,cen,21.60
2022-10-04T15:15:00,cen,20.40
2022-10-04T15:17:00,cen,20.40
2022-10-04T15:19:00,cen,22.80
2022-10-04T15:20:00,cen,10.80
2022-10-04T15:21:00,cen,10.80
2022-10-04T15:23:00,cen,22.80
2022-10-04T15:25:00,cen,22.80
2022-10-04T15:27:00,cen,25.20
2022-10-04T15:29:00,cen,20.40
2022-10-04T15:30:00,cen,9.60
2022-10-04T15:32:00,cen,20.40
2022-10-04T15:34:00,cen,20.40
2022-10-04T15:36:00,cen,20.40
2022-10-04T15:38:00,cen,20.40
2022-10-04T15:40:00,cen,19.20
2022-10-04T15:41:00,cen,9.60
2022-10-04T15:43:00,cen,19.20
2022-10-04T15:44:00,cen,10.80
2022-10-04T15:46:00,cen,20.40
2022-10-04T15:48:00,cen,20.40
2022-10-04T15:50:00,cen,19.20
2022-10-04T15:52:00,cen,24.00
2022-10-04T15:53:00,cen,19.20
2022-10-04T15:54:00,cen,19.20
2022-10-04T15:56:00,cen,37.20
2022-10-04T15:57:00,cen,14.40
2022-10-04T15:59:00,cen,20.40
2022-10-04T16:00:00,cen,9.60
2022-10-04T16:01:00,cen,9.60
2022-10-04T16:03:00,cen,21.60
2022-10-04T16:05:00,cen,20.40
2022-10-04T16:07:00,cen,22.80
2022-10-04T16:08:00,cen,10.80
2022-10-04T16:10:00,cen,20.40
2022-10-04T16:12:00,cen,20.40
2022-10-04T16:14:00,cen,21.60
2022-10-04T16:15:00,cen,9.60
2022-10-04T16:17:00,cen,20.40
2022-10-04T16:19:00,cen,20.40
2022-10-04T16:20:00,cen,9.60
2022-10-04T16:21:00,cen,10.80
2022-10-04T16:23:00,cen,20.40
2022-10-04T16:24:00,cen,9.60
2022-10-04T16:26:00,cen,20.40
2022-10-04T16:28:00,cen,20.40
2022-10-04T16:29:00,cen,9.60
2022-10-04T16:30:00,cen,9.60
2022-10-04T16:32:00,cen,20.40
2022-10-04T16:33:00,cen,9.60
2022-10-04T16:35:00,cen,16.80
2022-10-04T16:36:00,cen,8.40
2022-10-04T16:37:00,cen,8.40
2022-10-04T16:39:00,cen,16.80
2022-10-04T16:41:00,cen,18.00
2022-10-04T16:42:00,cen,8.40
2022-10-04T16:44:00,cen,19.20
2022-10-04T16:45:00,cen,8.40
2022-10-04T16:46:00,cen,8.40
2022-10-04T16:48:00,cen,18.00
2022-10-04T16:50:00,cen,15.60
2022-10-04T16:52:00,cen,14.40
2022-10-04T16:54:00,cen,15.60
2022-10-04T16:55:00,cen,7.20
2022-10-04T16:56:00,cen,6.00
2022-10-04T16:58:00,cen,14.40
2022-10-04T16:59:00,cen,7.20
2022-10-04T17:01:00,cen,12.00
2022-10-04T17:03:00,cen,15.60
2022-10-04T17:05:00,cen,14.40
2022-10-04T17:07:00,cen,10.80
2022-10-04T17:08:00,cen,4.80
2022-10-04T17:10:00,cen,9.60
2022-10-04T17:12:00,cen,8.40
2022-10-04T17:14:00,cen,9.60
2022-10-04T17:16:00,cen,8.40
2022-10-04T17:17:00,cen,3.60
2022-10-04T17:19:00,cen,8.40
2022-10-04T17:20:00,cen,4.80
2022-10-04T17:22:00,cen,8.40
2022-10-04T17:24:00,cen,8.40
2022-10-04T17:25:00,cen,4.80
2022-10-04T17:27:00,cen,10.80
2022-10-04T17:28:00,cen,3.60
2022-10-04T17:29:00,cen,4.80
2022-10-04T17:31:00,cen,7.20
2022-10-04T17:32:00,cen,3.60
2022-10-04T17:34:00,cen,9.60
2022-10-04T17:36:00,cen,7.20
2022-10-04T17:38:00,cen,9.60
2022-10-04T17:40:00,cen,8.40
2022-10-04T17:41:00,cen,4.80
2022-10-04T17:43:00,cen,9.60
2022-10-04T17:45:00,cen,9.60
2022-10-04T17:46:00,cen,8.40
2022-10-04T17:48:00,cen,10.80
2022-10-04T17:50:00,cen,6.00
2022-10-04T17:51:00,cen,3.60
2022-10-04T17:53:00,cen,7.20
2022-10-04T17:55:00,cen,6.00
2022-10-04T17:57:00,cen,7.20
2022-10-04T17:58:00,cen,3.60
2022-10-04T18:00:00,cen,7.20
2022-10-04T18:01:00,cen,3.60
2022-10-04T18:02:00,cen,3.60
2022-10-04T18:04:00,cen,7.20
2022-10-04T18:06:00,cen,7.20
2022-10-04T18:07:00,cen,4.80
2022-10-04T18:09:00,cen,6.00
2022-10-04T18:11:00,cen,7.20
2022-10-04T18:13:00,cen,6.00
2022-10-04T18:14:00,cen,3.60
2022-10-04T18:16:00,cen,7.20
2022-10-04T18:17:00,cen,2.40
2022-10-04T18:18:00,cen,3.60
2022-10-04T18:19:00,cen,2.40
2022-10-04T18:20:00,cen,3.60
2022-10-04T18:22:00,cen,6.00
2022-10-04T18:24:00,cen,4.80
2022-10-04T18:25:00,cen,4.80
2022-10-04T18:27:00,cen,7.20
2022-10-04T18:28:00,cen,4.80
2022-10-04T18:30:00,cen,7.20
2022-10-04T18:32:00,cen,7.20
2022-10-04T18:33:00,cen,3.60
2022-10-04T18:35:00,cen,7.20
2022-10-04T18:36:00,cen,3.60
2022-10-04T18:38:00,cen,8.40
2022-10-04T18:39:00,cen,3.60
2022-10-04T18:41:00,cen,7.20
2022-10-04T18:42:00,cen,3.60
2022-10-04T18:43:00,cen,4.80
2022-10-04T18:45:00,cen,8.40
2022-10-04T18:47:00,cen,8.40
2022-10-04T18:49:00,cen,10.80
2022-10-04T18:51:00,cen,8.40
2022-10-04T18:53:00,cen,8.40
2022-10-04T18:54:00,cen,4.80
2022-10-04T18:55:00,cen,3.60
2022-10-04T18:57:00,cen,8.40
2022-10-04T18:59:00,cen,8.40
2022-10-04T19:01:00,cen,8.40
2022-10-04T19:03:00,cen,8.40
2022-10-04T19:04:00,cen,3.60
2022-10-04T19:06:00,cen,8.40
2022-10-04T19:07:00,cen,3.60
2022-10-04T19:09:00,cen,8.40
2022-10-04T19:10:00,cen,4.80
2022-10-04T19:12:00,cen,9.60
2022-10-04T19:13:00,cen,4.80
2022-10-04T19:15:00,cen,7.20
2022-10-04T19:17:00,cen,9.60
2022-10-04T19:18:00,cen,3.60
2022-10-04T19:20:00,cen,8.40
2022-10-04T19:21:00,cen,3.60
2022-10-04T19:23:00,cen,8.40
2022-10-04T19:24:00,cen,4.80
2022-10-04T19:26:00,cen,8.40
2022-10-04T19:27:00,cen,4.80
2022-10-04T19:28:00,cen,4.80
2022-10-04T19:30:00,cen,9.60
2022-10-04T19:31:00,cen,6.00
2022-10-04T19:32:00,cen,3.60
2022-10-04T19:34:00,cen,8.40
2022-10-04T19:35:00,cen,4.80
2022-10-04T19:36:00,cen,4.80
2022-10-04T19:38:00,cen,8.40
2022-10-04T19:39:00,cen,3.60
2022-10-04T19:40:00,cen,3.60
2022-10-04T19:42:00,cen,7.20
2022-10-04T19:43:00,cen,8.40
2022-10-04T19:44:00,cen,12.00
2022-10-04T19:45:00,cen,12.00
2022-10-04T19:46:00,cen,10.80
2022-10-04T19:48:00,cen,15.60
2022-10-04T19:50:00,cen,8.40
2022-10-04T19:51:00,cen,4.80
2022-10-04T19:52:00,cen,4.80
2022-10-04T19:54:00,cen,8.40
2022-10-04T19:56:00,cen,6.00
2022-10-04T19:57:00,cen,6.00
2022-10-04T19:59:00,cen,6.00
2022-10-04T20:01:00,cen,8.40
2022-10-04T20:03:00,cen,8.40
2022-10-04T20:04:00,cen,4.80
2022-10-04T20:05:00,cen,3.60
2022-10-04T20:06:00,cen,3.60
2022-10-04T20:08:00,cen,8.40
2022-10-04T20:10:00,cen,8.40
2022-10-04T20:11:00,cen,4.80
2022-10-04T20:13:00,cen,9.60
2022-10-04T20:15:00,cen,7.20
2022-10-04T20:17:00,cen,7.20
2022-10-04T20:18:00,cen,4.80
2022-10-04T20:20:00,cen,6.00
2022-10-04T20:22:00,cen,7.20
2022-10-04T20:24:00,cen,7.20
2022-10-04T20:26:00,cen,7.20
2022-10-04T20:28:00,cen,7.20
2022-10-04T20:29:00,cen,3.60
2022-10-04T20:31:00,cen,7.20
2022-10-04T20:33:00,cen,8.40
2022-10-04T20:35:00,cen,8.40
2022-10-04T20:36:00,cen,3.60
2022-10-04T20:38:00,cen,8.40
2022-10-04T20:40:00,cen,7.20
2022-10-04T20:42:00,cen,8.40
2022-10-04T20:43:00,cen,4.80
2022-10-04T20:44:00,cen,4.80
2022-10-04T20:46:00,cen,8.40
2022-10-04T20:48:00,cen,7.20
2022-10-04T20:49:00,cen,4.80
2022-10-04T20:51:00,cen,7.20
2022-10-04T20:52:00,cen,4.80
2022-10-04T20:54:00,cen,7.20
2022-10-04T20:55:00,cen,4.80
2022-10-04T20:57:00,cen,9.60
2022-10-04T20:59:00,cen,7.20
2022-10-04T21:01:00,cen,7.20
2022-10-04T21:03:00,cen,8.40
2022-10-04T21:05:00,cen,7.20
2022-10-04T21:07:00,cen,7.20
2022-10-04T21:09:00,cen,7.20
2022-10-04T21:11:00,cen,7.20
2022-10-04T21:13:00,cen,6.00
2022-10-04T21:15:00,cen,6.00
2022-10-04T21:16:00,cen,3.60
2022-10-04T21:17:00,cen,3.60
2022-10-04T21:19:00,cen,10.80
2022-10-04T21:21:00,cen,8.40
2022-10-04T21:22:00,cen,3.60
2022-10-04T21:24:00,cen,7.20
2022-10-04T21:25:00,cen,3.60
2022-10-04T21:27:00,cen,8.40
2022-10-04T21:28:00,cen,3.60
2022-10-04T21:30:00,cen,7.20
2022-10-04T21:32:00,cen,7.20
2022-10-04T21:34:00,cen,7.20
2022-10-04T21:36:00,cen,7.20
2022-10-04T21:37:00,cen,3.60
2022-10-04T21:39:00,cen,8.40
2022-10-04T21:41:00,cen,10.80
2022-10-04T21:43:00,cen,8.40
2022-10-04T21:44:00,cen,3.60
2022-10-04T21:46:00,cen,8.40
2022-10-04T21:49:00,cen,8.40
2022-10-04T21:50:00,cen,9.60
2022-10-04T21:51:00,cen,3.60
2022-10-04T21:52:00,cen,4.80
2022-10-04T21:54:00,cen,8.40